Location: ????????
(55.5667°N, 37.5833°E)
Time: 06:42:44
(UTC+00:00)

Cosmos 1371 Rocket - Pass Details

Date: 14 April 2026
Orbit: 749 x 786 km, 74.0° (Epoch: 10 May)

Event Time Altitude Azimuth Distance (km) Brightness Sun altitude
Exits shadow 22:18:26 64° 164° (SSE) 851 3.9 -24.0°
Maximum altitude 22:19:05 73° 114° (ESE) 809 4.0 -24.0°
Drops below altitude 10° 22:24:22 10° 31° (NNE) 2,336 7.5 -23.8°
Sets 22:26:47 0° 29° (NNE) 3,272 8.6 -23.7°
